Regional Weather Roundup
Issued by NWS

Home | Current Version | Previous Version | Text Only | Print | Product List | Glossary On
Versions: 1 2 3 4 5 6 7 8 9 10 11 12 13 14 15 16 17 18 19 20 21 22 23 24 25 26 27 28 29 30 31 32 33 34 35 36 37 38 39 40 41 42 43 44 45 46 47 48 49 50
000
ASUS45 KABQ 220210
RWRNM
WEATHER ROUNDUP FOR NEW MEXICO
NATIONAL WEATHER SERVICE ALBUQUERQUE NM
700 PM MST SUN DEC 21 2014

NOTE: "FAIR" MEANS FEW OR NO CLOUDS BELOW 12,000 FEET AGL WITH NO
       SIGNIFICANT WEATHER OR OBSTRUCTIONS TO VISION.

      THIS PRODUCT IS RELEASED AS TWO VERSIONS.  ONE VERSION NEAR
      THE TOP OF THE HOUR CONTAINING PRELIMINARY DATA FROM ALBUQUERQUE
      AND OTHER STATIONS.  A FINAL VERSION WITH ADDITIONAL DATA IS
      ISSUED ABOUT 10 MINUTES AFTER THE HOUR.

NMZ501-503-504-510>518-220300-
NORTHWEST PLATEAU/NORTHCENTRAL MOUNTAINS

CITY           SKY/WX    TMP DP  RH WIND       PRES   REMARKS
FARMINGTON     CLEAR     36  30  79 W5        29.96S WCI  32
LOS ALAMOS     CLOUDY    35  28  75 SE8       29.92R WCI  28
SANTA FE       PTCLDY    32  25  75 N7        29.91R WCI  26
TAOS           CLOUDY    34  25  69 W8        29.90R WCI  27
ANGEL FIRE     MOCLDY    31  25  79 W14G28    29.86S WCI  21

$$
NMZ402-403-502-505>509-220300-
WESTCENTRAL MOUNTAINS/SOUTHWEST MOUNTAINS

CITY           SKY/WX    TMP DP  RH WIND       PRES   REMARKS
GALLUP         CLOUDY    36  29  75 SW8       30.04R WCI  30
GRANTS         MOCLDY    35  27  73 CALM      30.01R
SILVER CITY    CLEAR     43  27  52 NW15      30.02S

$$
NMZ407-409-411-412-220300-
SOUTHERN DESERTS

CITY           SKY/WX    TMP DP  RH WIND       PRES   REMARKS
LORDSBURG      FAIR      43  34  70 NW7       30.04R
DEMING         PTCLDY    49  30  48 W13       29.98S
LAS CRUCES     PTCLDY    50  28  42 W21G28    29.94S
HOLLOMAN AFB   PTCLDY    44  30  57 NE8       29.91R
ALAMOGORDO     PTCLDY    48  28  46 NE8       29.92S
T OR C         CLEAR     56  28  34 NW10      29.92R

$$
NMZ519>523-220300-
CENTRAL VALLEYS/CENTRAL HIGHLANDS

CITY           SKY/WX    TMP DP  RH WIND       PRES   REMARKS
ALBUQUERQUE    MOCLDY    45  29  53 CALM      29.94R
DOUBLE EAGLE   CLEAR     36  28  75 CALM      29.95R
MORIARTY ARPT  FAIR      41  27  57 NW12G18   29.92S
CLINES CORNERS PTCLDY    38  26  62 NW26G33   29.87R WCI  26
BELEN          FAIR      39  28  66 CALM      29.94R
SOCORRO        FAIR      49  28  43 N7        29.91F

$$
NMZ524>526-539-540-220300-
SOUTHCENTRAL MOUNTAINS

CITY           SKY/WX    TMP DP  RH WIND       PRES   REMARKS
RUIDOSO        PTCLDY    46  25  42 NW12G38   29.90F

$$
NMZ527>531-220300-
NORTHEAST HIGHLANDS/NORTHEAST PLAINS

CITY           SKY/WX    TMP DP  RH WIND       PRES   REMARKS
LAS VEGAS      PTCLDY    45  24  43 NW24G38   29.79R
RATON          PTCLDY    39  20  46 VRB7      29.66S WCI  34
CLAYTON        CLOUDY    43  25  49 W14       29.60S

$$
NMZ532>537-220300-
EASTCENTRAL PLAINS

CITY           SKY/WX    TMP DP  RH WIND       PRES   REMARKS
TUCUMCARI      CLOUDY    53  26  35 W23       29.62R
CANNON AFB     PTCLDY    52  27  38 W21G29    29.65F
CLOVIS AIRPORT PTCLDY    52  27  37 W22G29    29.64S

$$
NMZ028-029-538-220300-
SOUTHEAST PLAINS

CITY           SKY/WX    TMP DP  RH WIND       PRES   REMARKS
ROSWELL        PTCLDY    58  26  29 W13       29.75R
ARTESIA        MOCLDY    55  27  33 W21G30    29.77S
CARLSBAD       CLOUDY    61  26  26 W26G37    29.74F
HOBBS          CLOUDY    55  27  33 W18       29.75R


$$



USA.gov is the U.S. government's official web portal to all federal, state and local government web resources and services.